星链-3100 (STARLINK-3100 )

导读 | 豆包AI

STARLINK-3100是美国太空探索技术公司星链星座中的卫星,于北京时间2021年9月14日发射入轨,属于星链网络的组网卫星,旨在为全球提供低延迟、高速率的宽带互联网服务,补全天基通信覆盖,推动星链星座完成全球通信组网建设,支撑星链民用商用及相关服务拓展。

Basic Information
目录编号:
49144
目录名称:
STARLINK-3100
国际标识:
2021-082Q
轨道中心:
EARTH
卫星名称:
星链-3100
卫星全名:
星链-3100 (STARLINK-3100 )
卫星状态:
在轨 (已飞行1642 天)
发射日期:
2021-09-14 UTC
国别 :
美国 (US)
星等 :
--
Orbit Information
数据来源 国际轨道数据 AOE轨道数据
星历时间 2026-03-14T15:23:21+0800
12小时前
查看轨道信息
2026-03-15T02:00:00+0800
1小时前
查看轨道信息
半长轴 6950.186km 6950.207km
偏心率 0.0002821 0.0004015
轨道倾角 69.997° 69.996°
近地点辐角 268.410° 265.272°
升交点赤经 282.800° 281.688°
平近点角 91.674° 318.894°
近地点 570.088km 569.279km
远地点 574.01km 574.861km
周期 96.107分钟 96.107分钟
每日圈数 14.983323 14.983256
Detailed Information
固有亮度:
5
最大亮度:
2.5
卫星平台:
Starlink v1.5
覆盖范围:
全球
运营商:
太空探索技术公司
运营商所在国:
美国
制造商(研发单位):
太空探索技术公司
制造商所在国:
美国
使用方式:
暂无
Satellite Introduction
星链(Starlink)计划是由太空探索技术公司(SpaceX)提出的一个巨型低轨卫星互联网星座项目,计划在2019年至2024年间在太空搭建由约1.2万颗卫星组成的“星链”网络,其中1584颗将部署在地球上空550千米处的近地轨道,并从2020年开始工作。该卫星仍在工作。
2D Orbit Map
3D Orbit Map
Orbit Altitude Analysis Chart
Orbit Inclination Analysis Chart
Orbit Comprehensive Analysis Chart
View Comprehensive Chart